Location: B�hl
(48.6968°N, 8.1352°E)
Time: 05:45:30
(UTC+00:00)

OBJECT-B - Pass Details

Date: 08 March 2021
Orbit: 414 x 427 km, 97.0° (Epoch: 09 April)

Event Time Altitude Azimuth Distance (km) Brightness Sun altitude
Exits shadow 19:03:16 53° 104° (ESE) 527 0.8 -17.4°
Maximum altitude 19:03:36 57° 74° (ENE) 504 0.8 -17.4°
Drops below altitude 10° 19:06:46 10° 356° (N) 1,509 3.8 -17.9°
Sets 19:08:48 0° 352° (N) 2,377 4.9 -18.3°
